Retour au catalogue

SL-8 R/B

ActifLEO
NORAD 5707·ROCKET BODY·🇷🇺 Russia

Lancé Dec 17, 1971 depuis Plesetsk Cosmodrome

Loading…

Prochains Passages (prochaines 24 heures)

TLE

FraisSource: Space-Track

Époque: Sep 14, 2026, 14:26 UTC

1 05707U 71114B   26257.60171839  .00000127  00000-0  48032-4 0  9991
2 05707  74.0286 331.4102 0025147 294.9759  64.8784 14.40536113868340

Suivez SL-8 R/B en temps réel avec AllMySat

Download on the App Store